User: anonymous
Location: Vancouver
(49.2500°N, 123.1330°W)
Time: 13:01:43
(UTC-07:00)
Language:

YAOGAN 6 - Orbit

View from above orbital plane
View from above orbital plane
View from above satellite
View from above satellite

Ground track
Ground track

The orbit data is extracted from the following two-line orbital elements,

1 34839U 09021A   14205.35062881  .00000884  00000-0  43459-4 0  8510
2 34839 097.2825 279.7980 0034569 100.3382 324.2559 15.20057951291353
Epoch (UTC): 24 July 2014 08:24:54
Eccentricity: 0.0034569
inclination: 97.2825°
perigee height: 482 km
apogee height: 529 km
right ascension of ascending node: 279.7980°
argument of perigee: 100.3382°
revolutions per day: 15.20057951
mean anomaly at epoch: 324.2559°
orbit number at epoch: 29135

The dashed part of the orbit path shows where the satellite is in the earth's shadow,  

DLR